Time,TemperatureF,DewpointF,PressureIn,WindDirection,WindDirectionDegrees,WindSpeedMPH,WindSpeedGustMPH,Humidity,HourlyPrecipIn,Conditions,Clouds,dailyrainin,SoftwareType,DateUTC
2016-07-26 00:00:00,76.2,69.9,29.79,WSW,242,0.0,0.0,81,0.00,,---,0.00,VWS V15.00,2016-07-26 04:00:00,
2016-07-26 00:10:00,75.9,70.0,29.78,WSW,242,0.0,0.0,82,0.00,,---,0.00,VWS V15.00,2016-07-26 04:10:00,
2016-07-26 00:15:00,75.7,69.8,29.78,WSW,242,0.0,0.0,82,0.00,,---,0.00,VWS V15.00,2016-07-26 04:15:00,
2016-07-26 00:20:00,75.5,70.0,29.78,WSW,242,0.0,0.0,83,0.00,,---,0.00,VWS V15.00,2016-07-26 04:20:00,
2016-07-26 00:25:00,75.4,69.9,29.78,WSW,242,0.0,0.0,83,0.00,,---,0.00,VWS V15.00,2016-07-26 04:25:00,
2016-07-26 00:30:00,75.3,69.8,29.78,WSW,242,0.0,0.0,83,0.00,,---,0.00,VWS V15.00,2016-07-26 04:30:00,
2016-07-26 00:35:00,75.4,69.9,29.78,WSW,242,0.0,0.0,83,0.00,,---,0.00,VWS V15.00,2016-07-26 04:35:00,
2016-07-26 00:40:00,75.4,69.9,29.78,WSW,242,0.0,0.0,83,0.00,,---,0.00,VWS V15.00,2016-07-26 04:40:00,
2016-07-26 00:45:00,75.5,70.0,29.78,WSW,242,0.0,0.0,83,0.00,,---,0.00,VWS V15.00,2016-07-26 04:45:00,
2016-07-26 00:50:00,75.4,69.9,29.78,WSW,242,0.0,0.0,83,0.00,,---,0.00,VWS V15.00,2016-07-26 04:50:00,
2016-07-26 00:55:00,75.3,69.8,29.78,WSW,242,0.0,0.0,83,0.00,,---,0.00,VWS V15.00,2016-07-26 04:55:00,
2016-07-26 01:00:00,75.2,69.7,29.78,WSW,242,0.0,0.0,83,0.00,,---,0.00,VWS V15.00,2016-07-26 05:00:00,
2016-07-26 01:05:00,75.1,69.9,29.78,WSW,242,0.0,0.0,84,0.00,,---,0.00,VWS V15.00,2016-07-26 05:05:00,
2016-07-26 01:10:00,74.9,69.4,29.78,WSW,242,0.0,0.0,83,0.00,,---,0.00,VWS V15.00,2016-07-26 05:10:00,
2016-07-26 01:15:00,74.9,69.7,29.78,WSW,242,0.0,0.0,84,0.00,,---,0.00,VWS V15.00,2016-07-26 05:15:00,
2016-07-26 01:25:00,74.7,69.6,29.78,WSW,242,0.0,0.0,84,0.00,,---,0.00,VWS V15.00,2016-07-26 05:25:00,
2016-07-26 01:30:00,74.6,69.1,29.78,WSW,242,0.0,0.0,83,0.00,,---,0.00,VWS V15.00,2016-07-26 05:30:00,
2016-07-26 01:35:00,74.5,69.0,29.78,WSW,242,0.0,0.0,83,0.00,,---,0.00,VWS V15.00,2016-07-26 05:35:00,
2016-07-26 01:40:00,74.4,68.9,29.78,WSW,242,0.0,0.0,83,0.00,,---,0.00,VWS V15.00,2016-07-26 05:40:00,
2016-07-26 01:45:00,74.4,69.3,29.78,WSW,242,0.0,0.0,84,0.00,,---,0.00,VWS V15.00,2016-07-26 05:45:00,
2016-07-26 01:50:00,74.3,68.8,29.78,WSW,242,0.0,0.0,83,0.00,,---,0.00,VWS V15.00,2016-07-26 05:50:00,
2016-07-26 01:55:00,74.2,69.1,29.77,WSW,242,0.0,0.0,84,0.00,,---,0.00,VWS V15.00,2016-07-26 05:55:00,
2016-07-26 02:00:00,74.0,68.9,29.77,WSW,242,0.0,0.0,84,0.00,,---,0.00,VWS V15.00,2016-07-26 06:00:00,
2016-07-26 02:05:00,73.9,68.8,29.77,WSW,242,0.0,0.0,84,0.00,,---,0.00,VWS V15.00,2016-07-26 06:05:00,
2016-07-26 02:10:00,73.7,68.6,29.77,WSW,242,0.0,0.0,84,0.00,,---,0.00,VWS V15.00,2016-07-26 06:10:00,
2016-07-26 02:15:00,73.5,68.4,29.77,WSW,242,0.0,0.0,84,0.00,,---,0.00,VWS V15.00,2016-07-26 06:15:00,
2016-07-26 02:20:00,73.4,68.3,29.77,WSW,242,0.0,0.0,84,0.00,,---,0.00,VWS V15.00,2016-07-26 06:20:00,
2016-07-26 02:25:00,73.3,68.5,29.77,WSW,242,0.0,0.0,85,0.00,,---,0.00,VWS V15.00,2016-07-26 06:25:00,
2016-07-26 02:30:00,73.1,68.3,29.78,WSW,240,0.0,0.0,85,0.00,,---,0.00,VWS V15.00,2016-07-26 06:30:00,
2016-07-26 02:35:00,73.1,68.3,29.78,WSW,240,0.0,0.0,85,0.00,,---,0.00,VWS V15.00,2016-07-26 06:35:00,
2016-07-26 02:40:00,72.9,68.1,29.78,WSW,240,0.0,0.0,85,0.00,,---,0.00,VWS V15.00,2016-07-26 06:40:00,
2016-07-26 02:45:00,72.7,67.9,29.78,WSW,240,0.0,0.0,85,0.00,,---,0.00,VWS V15.00,2016-07-26 06:45:00,
2016-07-26 02:50:00,72.6,68.2,29.78,WSW,240,0.0,0.0,86,0.00,,---,0.00,VWS V15.00,2016-07-26 06:50:00,
2016-07-26 02:55:00,72.4,68.0,29.78,WSW,240,0.0,0.0,86,0.00,,---,0.00,VWS V15.00,2016-07-26 06:55:00,
2016-07-26 03:00:00,72.2,67.8,29.78,WSW,240,0.0,0.0,86,0.00,,---,0.00,VWS V15.00,2016-07-26 07:00:00,
2016-07-26 03:05:00,72.1,67.7,29.78,WSW,240,0.0,0.0,86,0.00,,---,0.00,VWS V15.00,2016-07-26 07:05:00,
2016-07-26 03:10:00,71.9,67.8,29.78,WSW,240,0.0,0.0,87,0.00,,---,0.00,VWS V15.00,2016-07-26 07:10:00,
2016-07-26 03:15:00,71.8,67.7,29.78,WSW,240,0.0,0.0,87,0.00,,---,0.00,VWS V15.00,2016-07-26 07:15:00,
2016-07-26 03:20:00,71.7,67.6,29.78,WSW,240,0.0,0.0,87,0.00,,---,0.00,VWS V15.00,2016-07-26 07:20:00,
2016-07-26 03:25:00,71.5,67.4,29.78,WSW,240,0.0,0.0,87,0.00,,---,0.00,VWS V15.00,2016-07-26 07:25:00,
2016-07-26 03:30:00,71.5,67.4,29.78,WSW,240,0.0,0.0,87,0.00,,---,0.00,VWS V15.00,2016-07-26 07:30:00,
2016-07-26 03:35:00,71.4,67.7,29.78,WSW,240,0.0,0.0,88,0.00,,---,0.00,VWS V15.00,2016-07-26 07:35:00,
2016-07-26 03:40:00,71.3,67.6,29.78,WSW,240,0.0,0.0,88,0.00,,---,0.00,VWS V15.00,2016-07-26 07:40:00,
2016-07-26 03:45:00,71.2,67.5,29.78,WSW,240,0.0,0.0,88,0.00,,---,0.00,VWS V15.00,2016-07-26 07:45:00,
2016-07-26 03:50:00,71.1,67.4,29.78,WSW,240,0.0,0.0,88,0.00,,---,0.00,VWS V15.00,2016-07-26 07:50:00,
2016-07-26 03:55:00,71.0,67.3,29.78,WSW,240,0.0,0.0,88,0.00,,---,0.00,VWS V15.00,2016-07-26 07:55:00,
2016-07-26 04:00:00,70.9,67.2,29.79,WSW,240,0.0,0.0,88,0.00,,---,0.00,VWS V15.00,2016-07-26 08:00:00,
2016-07-26 04:05:00,70.8,67.1,29.79,WSW,240,0.0,0.0,88,0.00,,---,0.00,VWS V15.00,2016-07-26 08:05:00,
2016-07-26 04:10:00,70.7,67.3,29.79,WSW,240,0.0,0.0,89,0.00,,---,0.00,VWS V15.00,2016-07-26 08:10:00,
2016-07-26 04:15:00,70.6,67.2,29.79,WSW,240,0.0,0.0,89,0.00,,---,0.00,VWS V15.00,2016-07-26 08:15:00,
2016-07-26 04:20:00,70.5,67.1,29.79,WSW,240,0.0,0.0,89,0.00,,---,0.00,VWS V15.00,2016-07-26 08:20:00,
2016-07-26 04:25:00,70.4,67.0,29.79,WSW,240,0.0,0.0,89,0.00,,---,0.00,VWS V15.00,2016-07-26 08:25:00,
2016-07-26 04:30:00,70.3,66.9,29.79,WSW,240,0.0,0.0,89,0.00,,---,0.00,VWS V15.00,2016-07-26 08:30:00,
2016-07-26 04:35:00,70.2,67.1,29.79,WSW,240,0.0,0.0,90,0.00,,---,0.00,VWS V15.00,2016-07-26 08:35:00,
2016-07-26 04:40:00,70.1,67.0,29.79,WSW,240,0.0,0.0,90,0.00,,---,0.00,VWS V15.00,2016-07-26 08:40:00,
2016-07-26 04:45:00,70.0,66.9,29.80,WSW,240,0.0,0.0,90,0.00,,---,0.00,VWS V15.00,2016-07-26 08:45:00,
2016-07-26 04:50:00,69.9,66.8,29.80,WSW,240,0.0,0.0,90,0.00,,---,0.00,VWS V15.00,2016-07-26 08:50:00,
2016-07-26 04:55:00,69.9,66.8,29.80,WSW,240,0.0,0.0,90,0.00,,---,0.00,VWS V15.00,2016-07-26 08:55:00,
2016-07-26 05:00:00,69.8,67.1,29.81,WSW,240,0.0,0.0,91,0.00,,---,0.00,VWS V15.00,2016-07-26 09:00:00,